Regional Weather Roundup
Issued by NWS

Home | Current Version | Previous Version | Text Only | Print | Product List | Glossary On
Versions: 1 2 3 4 5 6 7 8 9 10 11 12 13 14 15 16 17 18 19 20 21 22 23 24 25 26 27 28 29 30 31 32 33 34 35 36 37 38 39 40 41 42 43 44 45 46 47 48 49 50
000
ASUS44 KLUB 132001
RWRTX
WEST TEXAS WEATHER ROUNDUP
NATIONAL WEATHER SERVICE LUBBOCK TX
300 PM CDT SUN JUL 13 2014

NOTE: "FAIR" INDICATES FEW OR NO CLOUDS BELOW 12,000 FEET WITH NO
SIGNIFICANT WEATHER AND/OR OBSTRUCTIONS TO VISIBILITY.

TXZ004-006>008-010-012-014-016-OKZ002-132100-
TEXAS PANHANDLE/OKLAHOMA PANHANDLE

CITY           SKY/WX    TMP DP  RH WIND       PRES   REMARKS
AMARILLO       SUNNY     90  62  39 VRB7      30.18F
BORGER         SUNNY     91  57  31 MISG      30.15F
CANADIAN       MOSUNNY   92  60  33 NE3       30.09F
DALHART        PTSUNNY   86  57  37 E8        30.23F
DUMAS          MOSUNNY   87  58  37 CALM      30.20F
GUYMON         PTSUNNY   90  57  32 VRB3      30.15F
HEREFORD       MOSUNNY   88  64  44 MISG      30.20F
PAMPA          PTSUNNY   91  56  30 NE7       30.16F
PERRYTON       PTSUNNY   94  54  26 N5        30.12F
$$

TXZ026-029-035-045-048-132100-
SOUTHERN PANHANDLE/SOUTH PLAINS/ROLLING PLAINS

CITY           SKY/WX    TMP DP  RH WIND       PRES   REMARKS
CHILDRESS      SUNNY     97  55  24 VRB5      30.08F HX  95
SEMINOLE       MOSUNNY   92  53  26 S12G18    30.18F
LUBBOCK        PTSUNNY   91  58  32 S10       30.17F
SNYDER         SUNNY     93  58  30 SE3       30.12F
$$

TXZ052-054-060>062-072-078-127-140-154-169-132100-
PERMIAN BASIN/CONCHO VALLEY/BIG COUNTRY/EDWARDS PLATEAU

CITY           SKY/WX    TMP DP  RH WIND       PRES   REMARKS
ABILENE        PTSUNNY   98  59  27 S10G17    30.08F HX  98
BIG SPRING     SUNNY     94  55  26 S7G20     30.14F
BRADY          SUNNY     97  55  24 E7        30.09F HX  95
BROWNWOOD      MOSUNNY   95  59  30 SE8       30.08F
JUNCTION       SUNNY     96  56  26 S8        30.09F
MIDLAND        MOSUNNY   92  59  33 SE15G21   30.13F
ODESSA         MOSUNNY   93  56  28 SE17G24   30.14F
SAN ANGELO     MOSUNNY   95  57  27 S8        30.09F
SWEETWATER     PTSUNNY   94  54  25 SE10      30.15F
WINK           SUNNY     95  55  26 E9        30.09F
$$

TXZ055-058-074-075-080-082-132100-
FAR WEST/SOUTHWEST MOUNTAINS/TRANS PECOS

CITY           SKY/WX    TMP DP  RH WIND       PRES   REMARKS
ALPINE         CLOUDY    88  53  30 E14G24    30.25F
DRYDEN           N/A     95  63  34 SE17G23   30.09F HX  96
EL PASO        LGT RAIN  88  57  34 SE10      30.13F
FORT STOCKTON  MOSUNNY   93  57  29 SE14G22   30.11F
GUADALUPE PASS MOSUNNY   86  49  27 E13G24      N/A
MARFA          MOSUNNY   86  55  35 E8        30.25F
PECOS          SUNNY     91  59  34 CALM      30.09F
PRESIDIO       FAIR      94  56  27 E10G17    30.08F
$$

TXZ014-016-019-021>030-083-132100
TEXAS TECH WEST TEXAS MESONET/TEXAS PANHANDLE/NORTHERN SOUTH PLAINS

CITY           SKY/WX    TMP DP  RH WIND       PRES   REMARKS
ABERNATHY 5ENE   N/A     91  53  27 SE7       30.18F
AMARILLO 9NNE    N/A     88  60  39 E3        30.17F
AMARILLO 7SSE    N/A     86  61  42 E3        30.19F
AMHERST 1NE      N/A     89  56  32 SE1       30.19F
BOOTLEG 11WNW    N/A     86  60  42 NE6       30.25F
CANADIAN 6E      N/A     92  61  34 N6        30.08F
CAPROCK CYN SP   N/A     93  57  30 S8        30.13F
CHILDRESS 2NNE   N/A     97  55  24 SW10      30.07F HX  95
CLARENDON 2WSW   N/A     92  59  33 E2        30.12F
CLAUDE 12SW      N/A     87  62  43 E1        30.17F
DIMMITT 2NE      N/A     86  60  42 S5        30.20F
FLOYDADA 2NNE    N/A     88  53  29 SW2       30.17F
FRIONA 2NE       N/A     85  59  41 SE10      30.22F
GOODLETT 3W      N/A     99  55  22 S7        30.04F HX  97
HART 3N          N/A     86  61  42 S3        30.20F
HEREFORD 2NW     N/A     87  61  40 E6        30.20F
MCLEAN 1E        N/A     92  62  37 NW7       30.12F
MEMPHIS 1NE      N/A     96  59  29 SW8       30.08F HX  96
MULESHOE 2SSW    N/A     87  57  35 SE6       30.20F
OLTON 6S         N/A     88  56  33 SE6       30.19F
PALO DURO SP     N/A     88  62  41 SE5       30.18F
PAMPA 2E         N/A     92  58  31 NE5       30.15F
PLAINVIEW 1S     N/A     89  56  32 SW6       30.17F
SILVERTON 7ESE   N/A     89  62  40 SE7       30.16F
TULIA 2ENE       N/A     89  58  35 S3        30.18S
TURKEY 2WSW      N/A     92  60  33 NW2       30.11F
UMBARGER 3NNE    N/A     87  62  42 NE1       30.20F
$$

TXZ033>036-039>041-045>048-132100
TEXAS TECH WEST TEXAS MESONET/SOUTH PLAINS

CITY           SKY/WX    TMP DP  RH WIND       PRES   REMARKS
AIKEN 3WSW       N/A     89  63  40 S2        30.19F
ANDREWS 2NE      N/A     92  52  25 SE8       30.15F
ANTON 6SSW       N/A     89  55  31 SE3       30.18F
BROWNFIELD 2S    N/A     89  53  29 SE3       30.17F
DENVR CTY 7WNW   N/A     89  49  25 SE12      30.18F
GAIL 2ESE        N/A     94  55  27 S6        30.12F
LAMESA 2SE       N/A     91  55  29 SE9       30.15F
LEVELLAND 4S     N/A     91  49  24 SW5       30.18F
LUBBOCK 3WNW     N/A     91  54  28 SE9       30.17F
MORTON 1ENE      N/A     87  53  30 E7        30.19F
ODONNELL 1N      N/A     90  54  28 SE6       30.16F
PLAINS 3N        N/A     88  55  32 SE12      30.20S
RALLS 1SE        N/A     89  58  34 S6        30.18S
REESE CENTER     N/A     91  52  26 S9        30.17F
SEAGRAVES 1SW    N/A     91  53  26 S12       30.17F
SEMINOLE 2NNE    N/A     92  52  25 S10       30.16S
SLATON 2NE       N/A     90  55  30 S1        30.17S
SNYDER 3E        N/A     95  54  25 S2        30.12F
SUNDOWN 8SW      N/A     89  56  32 SE6       30.19F
TAHOKA 3NNE      N/A     92  54  27 S9        30.15F
WOLFFORTH 6SSW   N/A     91  54  28 E6        30.17F
$$

TXZ031-032-036>038-042>044-132100-
TEXAS TECH WEST TEXAS MESONET/ROLLING PLAINS

CITY           SKY/WX    TMP DP  RH WIND       PRES   REMARKS
ASPERMONT 3NE    N/A     98  56  24 S8        30.07F HX  97
FLUVANNA 3WNW    N/A     93  53  25 S9        30.13F
GRAHAM 5SSW      N/A     91  51  26 S5        30.14F
GUTHRIE 10WSW    N/A     98  54  22 SW9       30.08F HX  96
HASKELL 1NW      N/A     95  53  24 S2        30.06F
JAYTON 1SSE      N/A     97  54  23 SE6       30.08F
KNOX CITY 3NW    N/A     98  53  21 SE9       30.06F HX  96
LK A HENRY 1NW   N/A     95  55  26 NE1       30.10F
NORTHFIELD 1S    N/A     97  54  23 W6        30.08F HX  95
ODELL 4ENE       N/A     97  56  25 SW2       30.04F HX  96
PADUCAH 10SW     N/A     96  55  24 W6        30.08F
POST 1NE         N/A     94  53  24 SW5       30.12F
RRING SPRGS 3N   N/A     93  55  27 E6        30.13F
SEYMOUR 3NW      N/A     98  54  23 SW6       30.04F HX  96
SPUR 1W          N/A     94  51  23 SW6       30.10F
WEINERT 2NNE     N/A     97  60  29 SW9       30.06F HX  97
WHITE RVR 6NE    N/A     94  56  28 SE5       30.13F
$$

TXZ052-054-060>062-072-078-127-140-154-169-132100-
TEXAS TECH WEST TEXAS MESONET/PERMIAN BASIN/
CONCHO VALLEY/BIG COUNTRY/EDWARDS PLATEAU

CITY           SKY/WX    TMP DP  RH WIND       PRES   REMARKS
COYANOSA 2N      N/A     97  56  24 SE13      30.09F HX  95
JUNCTION 1SSW    N/A     95  60  31 SE9       30.10F HX  95
MERTZON 3NNE     N/A     94  61  33 SE6       30.12F
SAN ANGELO 7NW   N/A     95  57  27 NE8       30.10F
STRLNG CT 4WSW   N/A     93  60  32 S9        30.12F
ST LAWRNCE 5SW   N/A     91  57  31 S13       30.14F
SWEETWATR 11SW   N/A     93  58  29 S5        30.13F
WALL 1E          N/A     96  57  27 E1        30.10F
$$

TXZ055-058-074-075-080-082-132100-
TEXAS TECH WEST TEXAS MESONET/FAR WEST/SOUTHWEST MOUNTAINS/TRANS PECOS

CITY           SKY/WX    TMP DP  RH WIND       PRES   REMARKS
PRSMN GAP BBNP   N/A     95  56  27 N3        30.10F
GUADLPE MTN NP   N/A     82  52  34 E7        30.29F
$$


USA.gov is the U.S. government's official web portal to all federal, state and local government web resources and services.